Location: Sternwarte ZA, Rosenfeld-Brittheim
(48.2889°N, 8.6789°E)
Time: 05:13:00
(UTC+01:00)

ISS - Pass Details

Date: 13 November 2018
Orbit: 402 x 408 km, 51.6° (Epoch: 17 November)

Event Time Altitude Azimuth Distance (km) Brightness Sun altitude
Exits shadow 06:34:35 - 254° (WSW) 1,506 -1.4 -9.3°
Reaches altitude 10° 06:34:50 10° 250° (WSW) 1,460 -1.5 -9.2°
Maximum altitude 06:36:12 12° 225° (SW) 1,338 -1.5 -9.0°
Drops below altitude 10° 06:37:34 10° 200° (SSW) 1,458 -1.0 -8.8°
Sets 06:40:38 0° 169° (SSE) 2,313 0.4 -8.3°
